Location: Caltech
(34.1382°N, 118.1253°W)
Time: 16:00:38
(UTC-08:00)

Iridium 95 - Visible Passes

Search period start: 08 December 2016 00:00
Search period end: 18 December 2016 00:00
Orbit: 776 x 779 km, 86.4° (Epoch: 08 December)

Date Brightness Start Highest point End Pass type
(mag) Time Alt. Az. Time Alt. Az. Time Alt. Az.
08 Dec 7.8 19:34:10 10° SSW 19:35:06 15° SSW 19:35:06 15° SSW visible
09 Dec 7.4 06:08:17 10° NNE 06:12:58 33° E 06:17:37 10° SSE visible
09 Dec 7.0 19:00:31 10° S 19:02:43 26° S 19:02:43 26° S visible
10 Dec 8.3 05:35:49 10° NE 05:39:13 17° ENE 05:42:37 10° ESE visible
10 Dec 6.5 18:27:28 10° SSE 18:30:22 29° SE 18:30:22 29° SE visible
10 Dec 8.2 20:09:31 10° WSW 20:10:56 15° WSW 20:10:56 15° WSW visible
11 Dec 6.8 17:55:11 10° SE 17:58:05 20° E 17:58:05 20° E visible
11 Dec 7.0 19:34:39 10° SSW 19:38:38 34° WSW 19:38:38 34° WSW visible
12 Dec 6.6 06:08:04 10° N 06:13:07 49° E 06:18:09 10° SSE visible
12 Dec 7.3 17:25:06 10° E 17:25:48 10° ENE 17:25:51 10° ENE visible
12 Dec 5.7 19:00:37 10° S 19:05:47 70° W 19:06:24 63° NW visible
13 Dec 7.8 05:35:09 10° NNE 05:39:28 26° E 05:43:44 10° SE visible
13 Dec 5.5 18:27:12 10° SSE 18:32:18 60° E 18:34:12 37° NNE visible
13 Dec 8.4 20:11:17 10° W 20:13:24 12° WNW 20:14:46 11° WNW visible
14 Dec 8.4 05:03:14 10° NE 05:05:40 13° ENE 05:08:06 10° ESE visible
14 Dec 6.2 17:54:25 10° SE 17:58:56 31° E 18:02:04 17° NE visible
14 Dec 7.6 19:35:26 10° SW 19:39:35 24° W 19:42:38 15° NW visible
15 Dec 5.8 06:08:01 10° N 06:13:14 75° E 06:18:26 10° S visible
15 Dec 7.0 17:22:35 10° ESE 17:25:40 16° E 17:28:45 10° NE visible
15 Dec 6.5 19:00:56 10° SSW 19:05:55 46° W 19:10:32 12° NNW visible
16 Dec 7.1 05:34:48 10° NNE 05:39:39 38° E 05:44:28 10° SSE visible
16 Dec 5.4 18:27:09 10° S 18:32:21 90° ESE 18:37:36 10° N visible
17 Dec 8.1 05:02:10 10° NNE 05:05:56 20° E 05:09:41 10° SE visible
17 Dec 5.8 17:53:58 10° SSE 17:58:55 46° E 18:03:52 10° NNE visible
17 Dec 8.2 19:36:38 10° WSW 19:39:50 16° WNW 19:43:03 10° NW visible
